[[{"header":{"parameterUnit":"m.s-1","parameterCategory":1,"la1":30.2991,"la2":30.254,"lo1":-89.0895,"lo2":-89.0444,"dy":0.0017,"dx":0.0017,"nx":28,"ny":28,"refTime":"2023-11-23T03:00:00:Z","depth":0,"parameterNumber":2,"parameterNumberName":"U-component_of_WINDS"},"data":[0,0,0,0,0,0,0,0,0,0,0,0,0,0,0,0,0,0,0,0,0,0,0,0,0,0,0,0,0,0,0,0,0,0,0,0,0,0,0,0,0,0,0,0,0,0,0,0,0,0,0,0,0,0,0,0,0,0,0.4373,0.4374,0,0.4402,0.4402,0.4402,0.4411,0.4411,0.4411,0.4411,0.4437,0.4438,0.4438,0,0,0,0,0,0,0,0,0,0,0,0,0,0.4324,0.4325,0.4373,0.4374,0.4374,0.4402,0.4402,0.4402,0.4411,0.4411,0.4411,0.4411,0.4437,0.4438,0.4438,0,0,0,0,0,0,0,0,0,0,0,0,0,0.4348,0.4325,0.4373,0.4382,0.4383,0.4402,0.4402,0.4402,0.4411,0.4411,0.4411,0.441,0.4436,0.4437,0.4439,0.445,0,0,0.4442,0.4443,0,0,0,0,0,0,0,0,0.4346,0.435,0.438,0.4381,0.4382,0.4403,0.4394,0.4418,0.4411,0.44,0.4411,0.441,0.4425,0.4428,0.4433,0.4451,0.4452,0.4442,0.4443,0.4444,0.4444,0,0,0,0,0,0,0,0.4345,0.4348,0.4384,0.438,0.4382,0.4383,0.4386,0.4399,0.4413,0.4401,0.4402,0.4405,0.4426,0.4432,0.4434,0.4453,0.4442,0.4444,0.4444,0.4445,0.4482,0.4482,0,0,0,0,0,0,0.4342,0.4347,0.4383,0.4385,0.4364,0.4384,0.4388,0.4396,0.4413,0.4416,0.4405,0.4406,0.443,0.4432,0.4435,0.4449,0.4444,0.4445,0.4446,0.4481,0.4482,0.4482,0,0,0,0,0,0,0.4341,0.4345,0.4382,0.4366,0.4371,0.4385,0.4395,0.4397,0.4403,0.4417,0.4419,0.4409,0.443,0.4433,0.4446,0.445,0.4445,0.4447,0.4481,0.4481,0.4482,0.4478,0,0,0,0,0,0,0.4339,0.4345,0.435,0.4366,0.4372,0.4394,0.4395,0.4398,0.4405,0.4406,0.4421,0.4423,0.443,0.4445,0.4448,0.4452,0.4448,0.4481,0.4481,0.4482,0.4478,0.4479,0.4479,0,0,0,0,0,0.4338,0.4347,0.435,0.4355,0.4379,0.4394,0.4398,0.4406,0.4406,0.4411,0.4419,0.4422,0.4449,0.4446,0.4449,0.4454,0.4481,0.4481,0.4482,0.4478,0.4479,0.4479,0,0,0,0,0,0,0.433,0.435,0.4353,0.4368,0.438,0.4396,0.4402,0.4407,0.4418,0.4418,0.4427,0.443,0.4443,0.445,0.4445,0.4466,0.4465,0.4466,0.4461,0.4462,0.4462,0.446,0.4449,0,0,0,0,0,0.433,0.4342,0.4358,0.437,0.4376,0.4388,0.4395,0.4401,0.4413,0.4417,0.4427,0.4438,0.4449,0.4456,0.4466,0.4479,0.4482,0.4484,0.4485,0.4485,0.4486,0.4493,0.4494,0.4484,0.4484,0.4484,0,0,0.433,0.4342,0.4349,0.4369,0.4378,0.439,0.4392,0.4404,0.4412,0.4419,0.4432,0.444,0.4452,0.4465,0.4472,0.4472,0.4489,0.4486,0.4486,0.4486,0.4493,0.4494,0.4495,0.4484,0.4484,0.4484,0,0,0.4336,0.4347,0.4358,0.4368,0.4383,0.4391,0.4394,0.4409,0.4415,0.4429,0.4434,0.4444,0.4462,0.4471,0.4478,0.4487,0.449,0.449,0.4492,0.4499,0.45,0.45,0.4504,0.4505,0.4491,0.4491,0.4491,0,0.4334,0.4353,0.4363,0.4375,0.4383,0.4391,0.4402,0.441,0.4428,0.4433,0.4432,0.4456,0.4465,0.448,0.4483,0.4488,0.4491,0.4489,0.4499,0.45,0.4501,0.4504,0.4505,0.4491,0.4491,0.4491,0.4491,0,0.4349,0.4362,0.4369,0.4387,0.4395,0.4407,0.4418,0.4426,0.4431,0.4439,0.4452,0.4463,0.4477,0.4481,0.4485,0.4496,0.4496,0.4497,0.4496,0.4501,0.4504,0.4506,0.4491,0.4491,0.4491,0.4491,0,0,0.4351,0.4375,0.4377,0.4385,0.4402,0.4411,0.4423,0.4437,0.4443,0.4454,0.4463,0.4479,0.4481,0.4488,0.4494,0.45,0.4507,0.4501,0.4501,0.4501,0.4519,0.4518,0.4519,0.4509,0.4509,0.451,0.4518,0,0.4359,0.4381,0.4391,0.4407,0.4419,0.4427,0.4436,0.4447,0.4455,0.4465,0.4473,0.4484,0.4485,0.449,0.4496,0.4505,0.451,0.4504,0.4517,0.4517,0.4513,0.4521,0.452,0.4527,0.4519,0.452,0.452,0,0.4372,0.4384,0.4403,0.4418,0.4423,0.4432,0.4446,0.4455,0.4468,0.4473,0.4482,0.4487,0.4499,0.4497,0.4512,0.4508,0.4514,0.4519,0.4519,0.452,0.4519,0.4522,0.453,0.4531,0.4522,0.4522,0.4522,0,0.4371,0.4392,0.4406,0.4413,0.4431,0.4437,0.4445,0.4458,0.4465,0.4477,0.4482,0.4494,0.45,0.4509,0.4518,0.4516,0.4532,0.4531,0.4536,0.4536,0.4539,0.4538,0.4547,0.4543,0.4543,0.4543,0.4543,0,0.4379,0.4389,0.4406,0.4414,0.4426,0.4437,0.4448,0.4457,0.4468,0.4477,0.4484,0.4493,0.4504,0.4513,0.452,0.4531,0.4534,0.4538,0.4539,0.4537,0.4537,0.4541,0.454,0.4543,0.4543,0.4543,0.4543,0,0.4379,0.4391,0.4407,0.4423,0.4428,0.4436,0.445,0.4458,0.4466,0.4478,0.4481,0.4494,0.4506,0.4515,0.453,0.4535,0.4546,0.4548,0.4543,0.4543,0.4547,0.4547,0.4559,0.4561,0.4555,0.4555,0.4555,0,0.4384,0.4392,0.441,0.4418,0.4426,0.4438,0.4446,0.4457,0.4465,0.448,0.4485,0.4498,0.4509,0.4527,0.4537,0.4548,0.455,0.4554,0.4552,0.4549,0.455,0.4549,0.455,0.4554,0.4554,0.4554,0.4554,0,0.439,0.4395,0.4407,0.4422,0.4431,0.4443,0.4454,0.4459,0.4472,0.448,0.4493,0.4501,0.4517,0.4529,0.4542,0.4549,0.4553,0.4554,0.4556,0.4554,0.455,0.4552,0.4543,0.4554,0.4554,0.4554,0.4554,0.4554,0.4392,0.4401,0.4415,0.4428,0.4438,0.4448,0.4457,0.4466,0.4477,0.4492,0.4497,0.451,0.4522,0.4539,0.4547,0.4556,0.4557,0.4559,0.4559,0.456,0.4559,0.4549,0.4559,0.4559,0.4559,0.4559,0.4559,0,0.4399,0.4408,0.4421,0.4437,0.4447,0.4451,0.4464,0.4472,0.4483,0.4495,0.4505,0.452,0.4531,0.4542,0.4554,0.456,0.4562,0.4563,0.4562,0.4564,0.4559,0.4556,0.4561,0.4561,0.4561,0.4561,0.4561,0.4561,0.4403,0.4417,0.4424,0.4443,0.4452,0.4466,0.4473,0.4482,0.4491,0.4507,0.4517,0.4525,0.4536,0.4549,0.4559,0.4562,0.4566,0.4566,0.4569,0.4564,0.4564,0.4564,0.4561,0.4567,0.4567,0.4574,0.4574,0.4574]},{"header":{"parameterUnit":"m.s-1","parameterCategory":1,"la1":30.2991,"la2":30.254,"lo1":-89.0895,"lo2":-89.0444,"dy":0.0017,"dx":0.0017,"nx":28,"ny":28,"refTime":"2023-11-23T03:00:00:Z","depth":0,"parameterNumber":3,"parameterNumberName":"V-component_of_WINDS"},"data":[0,0,0,0,0,0,0,0,0,0,0,0,0,0,0,0,0,0,0,0,0,0,0,0,0,0,0,0,0,0,0,0,0,0,0,0,0,0,0,0,0,0,0,0,0,0,0,0,0,0,0,0,0,0,0,0,0,0,-1.4372,-1.4372,0,-1.4341,-1.4341,-1.434,-1.4323,-1.4323,-1.4323,-1.4323,-1.4289,-1.4288,-1.4287,0,0,0,0,0,0,0,0,0,0,0,0,0,-1.4413,-1.4413,-1.4372,-1.4372,-1.4371,-1.4341,-1.4341,-1.434,-1.4323,-1.4323,-1.4323,-1.4322,-1.4289,-1.4288,-1.4287,0,0,0,0,0,0,0,0,0,0,0,0,0,-1.439,-1.4412,-1.4372,-1.4359,-1.4357,-1.4341,-1.4341,-1.434,-1.4323,-1.4323,-1.4323,-1.4322,-1.4289,-1.4288,-1.4287,-1.4281,0,0,-1.4283,-1.4283,0,0,0,0,0,0,0,0,-1.4391,-1.4389,-1.4361,-1.436,-1.4358,-1.4336,-1.4343,-1.432,-1.4323,-1.4336,-1.4323,-1.4322,-1.4304,-1.4302,-1.4296,-1.4279,-1.4278,-1.4283,-1.4282,-1.4282,-1.4281,0,0,0,0,0,0,0,-1.4393,-1.439,-1.436,-1.4361,-1.4359,-1.4354,-1.435,-1.4339,-1.4321,-1.4335,-1.4333,-1.433,-1.4303,-1.4297,-1.4295,-1.4277,-1.4283,-1.4282,-1.4281,-1.4281,-1.4253,-1.4253,0,0,0,0,0,0,-1.4397,-1.4391,-1.4361,-1.4359,-1.4375,-1.4353,-1.4349,-1.4343,-1.4321,-1.4318,-1.433,-1.4329,-1.43,-1.4297,-1.4294,-1.4285,-1.4282,-1.428,-1.428,-1.4253,-1.4253,-1.4253,0,0,0,0,0,0,-1.4398,-1.4395,-1.4362,-1.4375,-1.437,-1.4352,-1.4345,-1.4342,-1.4336,-1.4318,-1.4314,-1.4327,-1.4299,-1.4296,-1.4284,-1.4284,-1.428,-1.4279,-1.4253,-1.4253,-1.4253,-1.4268,0,0,0,0,0,0,-1.4399,-1.4395,-1.4393,-1.4375,-1.437,-1.4354,-1.4345,-1.4342,-1.4335,-1.4333,-1.4314,-1.4311,-1.4299,-1.4286,-1.4283,-1.4282,-1.4278,-1.4253,-1.4253,-1.4253,-1.4267,-1.4268,-1.4269,0,0,0,0,0,-1.4401,-1.4398,-1.4393,-1.439,-1.4367,-1.4354,-1.435,-1.4338,-1.4335,-1.4332,-1.432,-1.4311,-1.4284,-1.4285,-1.4281,-1.428,-1.4253,-1.4253,-1.4253,-1.4267,-1.4268,-1.4269,0,0,0,0,0,0,-1.4416,-1.4395,-1.439,-1.4381,-1.4369,-1.4351,-1.4347,-1.4339,-1.4328,-1.4327,-1.4311,-1.4307,-1.4297,-1.4287,-1.4288,-1.4273,-1.4268,-1.4267,-1.4279,-1.428,-1.4281,-1.4284,-1.4277,0,0,0,0,0,-1.4419,-1.441,-1.4392,-1.4386,-1.4381,-1.4365,-1.4359,-1.435,-1.4337,-1.4331,-1.4318,-1.4305,-1.4294,-1.4287,-1.4275,-1.4266,-1.4261,-1.4263,-1.4264,-1.4265,-1.4264,-1.4258,-1.4258,-1.4254,-1.4254,-1.4254,0,0,-1.4423,-1.4411,-1.4406,-1.4389,-1.4379,-1.437,-1.4361,-1.4352,-1.4345,-1.433,-1.4318,-1.4308,-1.4293,-1.4282,-1.4277,-1.4274,-1.4264,-1.4265,-1.4266,-1.4265,-1.4258,-1.4259,-1.4259,-1.4254,-1.4254,-1.4254,0,0,-1.4427,-1.4417,-1.4411,-1.4401,-1.4386,-1.4376,-1.4374,-1.4357,-1.435,-1.4338,-1.4327,-1.4318,-1.4298,-1.4287,-1.4279,-1.4279,-1.4271,-1.4276,-1.4281,-1.4275,-1.4275,-1.4275,-1.4275,-1.4275,-1.4275,-1.4275,-1.4275,0,-1.4435,-1.4422,-1.4409,-1.44,-1.4393,-1.438,-1.4373,-1.4363,-1.4345,-1.434,-1.4337,-1.4312,-1.4301,-1.4287,-1.4287,-1.4281,-1.4278,-1.4278,-1.4276,-1.4276,-1.4276,-1.4276,-1.4275,-1.4276,-1.4276,-1.4276,-1.4276,0,-1.4431,-1.4422,-1.4419,-1.4402,-1.4394,-1.4387,-1.4372,-1.4365,-1.4357,-1.4346,-1.4334,-1.432,-1.4305,-1.4301,-1.4293,-1.4287,-1.4285,-1.428,-1.4274,-1.4278,-1.4277,-1.4276,-1.4277,-1.4277,-1.4277,-1.4276,0,0,-1.4444,-1.4421,-1.4419,-1.4412,-1.4394,-1.4386,-1.4378,-1.4364,-1.4358,-1.4346,-1.4338,-1.4321,-1.4316,-1.4307,-1.4297,-1.4292,-1.4292,-1.4287,-1.4286,-1.4288,-1.4283,-1.4288,-1.4288,-1.4287,-1.4286,-1.4286,-1.4285,0,-1.4445,-1.443,-1.4418,-1.4407,-1.4398,-1.4385,-1.4378,-1.4366,-1.4356,-1.4346,-1.4334,-1.4323,-1.4317,-1.4312,-1.4306,-1.4293,-1.4291,-1.4293,-1.4278,-1.4278,-1.4282,-1.4287,-1.4292,-1.4291,-1.4284,-1.4284,-1.4284,0,-1.4444,-1.4433,-1.4422,-1.4405,-1.4401,-1.4394,-1.438,-1.4371,-1.4357,-1.435,-1.434,-1.433,-1.4319,-1.4315,-1.43,-1.4302,-1.4295,-1.4288,-1.4287,-1.4285,-1.4281,-1.4285,-1.429,-1.429,-1.4283,-1.4283,-1.4283,0,-1.4454,-1.4436,-1.4427,-1.4421,-1.4401,-1.4397,-1.4388,-1.4374,-1.4366,-1.4354,-1.4348,-1.4334,-1.4327,-1.4316,-1.4302,-1.4301,-1.4288,-1.4283,-1.4281,-1.4282,-1.4279,-1.4279,-1.4283,-1.4275,-1.4275,-1.4275,-1.4275,0,-1.4457,-1.445,-1.4431,-1.4425,-1.4417,-1.4403,-1.4395,-1.4385,-1.4373,-1.4364,-1.4352,-1.4344,-1.4326,-1.4316,-1.4305,-1.4294,-1.429,-1.4284,-1.4281,-1.4285,-1.4286,-1.428,-1.4279,-1.4275,-1.4275,-1.4275,-1.4275,0,-1.4466,-1.4454,-1.4443,-1.4425,-1.442,-1.4415,-1.4399,-1.4393,-1.4382,-1.4371,-1.4368,-1.4351,-1.4338,-1.4323,-1.4305,-1.4298,-1.4287,-1.4283,-1.4292,-1.429,-1.4289,-1.429,-1.4289,-1.4288,-1.4281,-1.4282,-1.4282,0,-1.4469,-1.4463,-1.4445,-1.4439,-1.4431,-1.4421,-1.4413,-1.4399,-1.4391,-1.4374,-1.437,-1.4356,-1.4344,-1.4324,-1.431,-1.4296,-1.4291,-1.4292,-1.4289,-1.4292,-1.429,-1.4291,-1.429,-1.4292,-1.4293,-1.4293,-1.4293,0,-1.4474,-1.4468,-1.4458,-1.4445,-1.4436,-1.4426,-1.4414,-1.441,-1.4393,-1.4385,-1.4372,-1.4363,-1.4345,-1.4331,-1.4315,-1.4305,-1.4296,-1.4294,-1.4293,-1.4297,-1.4302,-1.4299,-1.4294,-1.4294,-1.4294,-1.4294,-1.4294,-1.4294,-1.4479,-1.4474,-1.446,-1.4449,-1.4439,-1.4429,-1.4422,-1.4411,-1.44,-1.4385,-1.4377,-1.4364,-1.4349,-1.4327,-1.4317,-1.4306,-1.4303,-1.4301,-1.4301,-1.4301,-1.4302,-1.4304,-1.4303,-1.4303,-1.4303,-1.4303,-1.4303,0,-1.4484,-1.4474,-1.4464,-1.4449,-1.444,-1.4433,-1.442,-1.4413,-1.4402,-1.439,-1.4378,-1.4363,-1.435,-1.4334,-1.432,-1.4314,-1.4309,-1.431,-1.431,-1.4308,-1.4305,-1.4308,-1.4314,-1.4314,-1.4314,-1.4314,-1.4314,-1.4314,-1.4485,-1.4475,-1.4468,-1.4452,-1.4443,-1.4431,-1.4424,-1.4414,-1.4404,-1.4388,-1.4377,-1.4367,-1.4353,-1.4337,-1.4324,-1.432,-1.4315,-1.4317,-1.4312,-1.4309,-1.4308,-1.4307,-1.431,-1.4316,-1.4316,-1.4315,-1.4315,-1.4315]}]]